Wind_Speed
34 33 34 35 35 34 34 33 32 32 32 31 32 32 30 30 29 30 30 31 31 32 32 32 33 33 32 32 32 32 32 32 32 31 31 30 30 29
32 31 32 33 33 34 34 33 33 33 33 32 31 32 32 31 30 30 31 31 31 31 32 33 34 34 34 34 33 33 33 32 32 32 31 30 30 30
28 29 29 30 31 32 33 32 31 31 31 31 30 30 30 30 29 28 29 30 30 30 31 32 33 34 34 33 33 33 33 32 32 31 31 30 30 30
24 25 26 27 28 28 29 29 29 29 28 29 29 28 27 26 26 26 26 28 29 29 29 30 32 33 32 32 32 31 31 31 31 31 30 30 30 31
21 23 24 25 26 26 27 28 28 28 28 28 27 27 27 27 26 26 25 26 27 27 28 29 30 31 31 31 30 29 29 29 30 30 30 30 30 30
19 20 21 22 23 24 25 26 27 27 28 28 28 27 26 25 25 25 25 25 26 26 26 27 27 27 27 27 27 26 26 27 27 27 28 28 29 30
17 19 20 20 21 21 22 23 24 25 26 26 26 26 25 24 24 23 23 23 24 24 23 23 23 24 24 23 23 24 25 24 24 25 25 26 27 28
14 15 16 17 18 19 20 22 22 22 22 23 23 23 23 22 23 23 23 21 21 20 20 21 21 21 21 21 22 22 22 23 23 23 24 24 25 26
11 12 13 15 15 16 17 18 19 20 20 21 20 20 19 20 21 20 20 19 19 18 18 18 18 18 17 17 18 19 20 20 21 21 22 22 23 24
7 8 10 11 12 13 13 14 15 16 17 17 18 17 17 17 16 15 15 15 15 15 14 14 14 15 16 16 17 17 18 18 19 19 20 20 21 22
4 5 5 6 7 8 10 11 13 15 15 14 14 13 13 12 12 12 12 12 12 12 12 12 13 14 15 15 16 16 16 17 18 18 19 19 20 20
2 2 3 2 3 4 6 7 9 10 11 11 11 11 11 10 10 10 10 10 10 11 11 12 13 13 13 14 14 15 15 16 16 16 17 17 17 18
4 2 1 1 1 1 2 4 5 6 7 8 9 9 9 10 9 9 10 10 10 11 11 11 12 12 12 13 13 13 13 14 14 14 14 15 16 16
6 4 3 2 1 1 1 2 3 5 5 6 8 8 9 9 9 9 8 9 9 9 9 10 10 10 10 10 10 10 10 11 12 13 13 14 14 15
7 6 5 4 3 3 2 2 2 3 4 5 6 7 7 8 7 8 8 8 8 8 8 8 8 8 8 8 8 8 9 9 10 11 12 12 13 13
10 9 8 7 5 5 4 4 4 4 4 4 5 5 6 6 6 6 6 6 6 6 6 6 6 6 6 6 6 7 7 8 9 10 10 11 12 12
11 10 9 8 7 7 6 5 5 5 5 5 4 4 4 4 4 4 4 5 4 4 4 4 4 5 5 5 6 6 7 7 8 9 10 10 11 12
12 11 10 9 9 8 8 7 6 6 5 5 4 4 3 3 3 3 3 3 3 3 3 3 3 4 4 5 5 6 6 7 8 8 9 10 11 11
13 12 12 11 10 9 9 8 7 6 6 5 4 4 3 3 2 2 2 2 2 2 2 2 3 3 4 4 5 6 6 7 7 8 9 9 10 11
14 13 12 11 11 10 10 9 8 7 6 5 4 4 3 3 2 2 2 1 1 1 1 2 2 3 3 4 4 5 5 6 6 7 8 9 10 11
14 13 13 12 11 10 9 9 8 7 7 6 5 4 4 3 3 2 2 1 0 1 1 2 2 2 3 3 4 4 5 5 6 7 8 9 10 11
12 12 12 11 11 10 9 9 8 8 7 6 5 4 4 3 2 2 2 1 1 1 1 2 2 2 3 3 4 4 5 6 7 8 9 9 10 10
11 10 10 10 9 9 9 8 7 7 6 5 4 4 3 3 3 2 2 2 1 1 1 2 2 3 3 4 4 5 6 7 7 8 8 9 10 11
Wind_Direction
248 247 248 248 247 248 249 249 250 252 251 251 253 254 255 256 257 257 257 259 260 259 260 262 263 264 265 267 269 270 271 273 274 275 277 278 280 281
249 248 250 249 249 249 249 249 251 252 252 251 253 254 256 256 259 258 259 258 259 259 260 262 263 264 265 266 268 269 270 271 273 274 276 278 280 281
248 248 249 249 247 247 248 248 250 251 251 251 253 254 256 258 258 258 258 260 259 259 259 260 262 263 264 266 267 268 269 271 273 273 275 277 279 282
247 246 247 247 246 246 248 250 249 250 252 252 251 252 255 257 258 259 261 260 258 256 257 260 261 263 264 266 266 267 268 270 271 273 274 276 279 281
248 249 249 249 247 247 250 249 249 250 252 252 251 252 254 254 257 259 258 258 257 257 259 261 261 262 262 264 265 266 267 269 271 273 274 277 279 281
253 252 252 250 248 248 248 247 248 250 250 250 250 251 253 254 256 258 257 257 258 258 260 261 262 262 262 263 265 266 268 271 273 275 277 279 281 283
255 255 253 252 249 248 249 248 250 249 247 249 249 252 253 253 256 255 255 257 258 260 261 260 261 261 260 262 264 266 269 272 276 279 280 282 283 284
259 257 255 254 253 252 250 250 250 249 248 248 248 249 251 252 253 253 252 254 256 256 257 257 257 257 258 261 265 269 273 276 278 280 283 286 288 290
260 256 254 254 258 255 251 248 246 246 246 246 246 247 249 248 249 248 247 250 253 253 252 255 256 260 263 267 272 274 276 279 282 284 286 289 292 293
261 254 252 250 246 244 243 244 241 237 237 239 241 242 244 247 246 244 245 245 246 247 251 255 258 265 270 274 276 277 280 283 285 287 290 293 294 294
275 254 245 239 231 230 232 235 234 233 233 232 232 233 234 237 238 238 238 242 246 249 253 258 262 267 273 276 278 280 283 285 287 289 291 294 295 295
337 298 256 243 229 240 234 233 229 226 228 227 227 227 227 228 226 226 230 237 243 249 255 261 265 270 274 276 279 281 284 287 289 291 294 296 298 300
31 18 337 279 234 258 238 221 214 210 211 219 220 216 214 213 217 225 234 241 248 255 261 265 268 271 274 277 281 285 287 291 294 296 299 301 303 305
48 53 69 88 104 129 173 195 198 197 200 199 201 204 208 214 225 233 240 245 249 257 263 266 269 274 277 279 283 288 291 296 299 300 303 306 308 308
50 57 70 84 89 101 128 152 157 170 178 180 184 192 200 209 220 229 237 243 250 257 263 267 270 273 278 283 289 295 300 303 305 307 309 310 312 314
59 64 70 77 81 86 91 94 103 123 142 153 164 179 192 205 216 227 235 242 247 253 260 265 269 271 277 284 293 300 308 313 314 314 315 317 318 318
57 61 64 69 74 82 89 93 95 102 109 120 137 156 179 195 205 217 227 233 238 246 253 259 263 269 278 288 296 303 311 318 323 325 326 326 327 328
55 59 64 70 74 80 85 90 94 97 103 109 113 120 131 151 174 190 201 210 216 225 238 254 268 284 293 294 299 307 312 322 328 333 335 335 334 334
57 59 62 67 71 76 81 85 89 94 98 100 99 102 107 115 125 142 161 185 201 217 248 272 283 293 300 302 309 314 319 324 329 333 336 339 340 340
57 59 62 64 67 71 74 77 80 85 90 89 90 93 96 102 109 116 127 146 185 242 266 279 290 300 308 315 321 326 329 332 335 337 338 339 341 343
55 58 61 63 65 68 71 74 75 79 83 86 86 86 89 92 90 86 82 88 167 270 295 307 312 312 317 324 327 333 336 338 339 338 338 339 343 346
52 54 58 61 63 64 67 70 72 75 77 79 80 80 79 73 59 44 36 30 3 323 318 323 326 330 333 332 331 334 335 334 334 335 336 337 340 342
46 50 53 56 59 61 63 66 66 65 64 65 65 61 56 44 29 21 18 4 346 337 345 348 344 336 334 332 329 328 329 330 331 332 333 334 335 337
Height
5808 5810 5814 5817 5820 5823 5826 5829 5833 5835 5837 5839 5841 5843 5845 5847 5849 5850 5851 5853 5854 5856 5857 5858 5859 5860 5861 5861 5862 5862 5862 5862 5862 5862 5861 5861 5860 5859
5799 5802 5806 5809 5812 5815 5818 5821 5824 5826 5829 5831 5833 5835 5837 5839 5841 5843 5844 5845 5847 5848 5849 5851 5852 5853 5854 5854 5855 5855 5855 5855 5855 5855 5854 5854 5853 5852
5791 5794 5797 5800 5803 5807 5809 5812 5815 5818 5820 5823 5825 5827 5829 5831 5833 5834 5836 5837 5839 5840 5841 5843 5844 5845 5846 5846 5847 5847 5848 5848 5848 5848 5847 5847 5846 5845
5784 5787 5790 5792 5796 5799 5801 5805 5807 5810 5812 5815 5817 5819 5821 5823 5825 5827 5828 5829 5831 5832 5833 5835 5836 5837 5838 5839 5839 5840 5840 5840 5840 5840 5840 5840 5839 5838
5778 5780 5783 5786 5789 5792 5794 5797 5800 5802 5805 5807 5810 5812 5814 5816 5818 5820 5821 5822 5823 5825 5826 5827 5829 5830 5830 5831 5832 5832 5833 5833 5833 5833 5833 5832 5831 5830
5772 5774 5777 5779 5782 5784 5787 5790 5792 5795 5797 5799 5802 5805 5807 5809 5811 5812 5814 5815 5817 5818 5819 5820 5821 5822 5823 5824 5825 5825 5826 5826 5826 5826 5825 5825 5824 5822
5767 5769 5771 5773 5775 5778 5780 5782 5785 5787 5790 5792 5795 5797 5800 5802 5804 5806 5807 5808 5810 5811 5812 5814 5815 5816 5817 5818 5818 5819 5820 5820 5819 5819 5818 5817 5816 5815
5763 5764 5766 5768 5769 5771 5774 5776 5779 5781 5784 5786 5788 5791 5793 5796 5798 5799 5801 5802 5804 5805 5807 5808 5809 5810 5811 5812 5813 5813 5814 5814 5813 5813 5812 5811 5809 5807
5759 5760 5762 5763 5764 5766 5768 5771 5773 5776 5779 5781 5783 5785 5788 5789 5791 5793 5795 5797 5799 5800 5801 5802 5804 5805 5806 5807 5807 5808 5808 5808 5807 5806 5805 5804 5802 5800
5756 5757 5758 5759 5760 5762 5764 5767 5769 5771 5773 5775 5778 5780 5783 5784 5786 5788 5790 5792 5794 5795 5797 5798 5799 5800 5801 5802 5802 5802 5802 5802 5801 5800 5799 5798 5796 5794
5755 5755 5756 5757 5758 5759 5761 5763 5765 5767 5769 5771 5774 5776 5778 5780 5782 5784 5786 5788 5790 5792 5793 5794 5795 5796 5797 5797 5798 5798 5797 5797 5796 5795 5793 5792 5790 5788
5754 5754 5755 5756 5757 5758 5759 5761 5762 5764 5766 5768 5770 5773 5775 5777 5779 5782 5784 5786 5787 5788 5789 5791 5792 5793 5793 5793 5793 5793 5793 5792 5791 5790 5789 5787 5786 5784
5754 5754 5755 5756 5756 5757 5758 5759 5760 5762 5764 5766 5768 5770 5773 5775 5777 5779 5781 5783 5784 5786 5787 5787 5788 5789 5790 5790 5789 5789 5788 5788 5786 5785 5784 5783 5781 5780
5755 5755 5755 5756 5756 5757 5757 5758 5759 5761 5762 5764 5766 5768 5771 5773 5775 5777 5779 5780 5782 5783 5784 5784 5785 5786 5786 5786 5786 5785 5785 5784 5783 5782 5780 5779 5777 5776
5757 5756 5756 5756 5757 5757 5758 5759 5759 5760 5761 5763 5765 5767 5769 5772 5774 5775 5777 5778 5779 5780 5781 5782 5782 5783 5783 5783 5783 5782 5782 5781 5780 5778 5777 5776 5774 5772
5759 5758 5758 5758 5758 5759 5759 5760 5761 5761 5762 5763 5765 5767 5769 5770 5772 5774 5775 5776 5777 5778 5779 5779 5780 5780 5781 5781 5781 5780 5780 5779 5777 5776 5775 5773 5771 5769
5761 5761 5760 5760 5760 5761 5761 5761 5762 5763 5763 5764 5766 5767 5768 5770 5771 5772 5774 5775 5776 5777 5777 5778 5778 5778 5779 5779 5778 5778 5777 5776 5775 5774 5772 5771 5769 5767
5765 5764 5763 5763 5763 5763 5763 5764 5764 5765 5765 5766 5767 5768 5769 5770 5771 5772 5773 5774 5775 5776 5776 5777 5777 5777 5777 5777 5777 5776 5776 5775 5774 5772 5771 5769 5767 5765
5768 5767 5767 5766 5766 5766 5766 5766 5767 5767 5767 5768 5769 5769 5770 5771 5772 5772 5773 5774 5774 5775 5775 5776 5776 5776 5776 5776 5775 5775 5774 5773 5772 5771 5769 5768 5766 5764
5773 5772 5771 5770 5769 5769 5769 5769 5769 5769 5770 5770 5770 5771 5771 5772 5772 5773 5773 5774 5774 5774 5775 5775 5775 5775 5775 5775 5774 5773 5772 5771 5770 5769 5768 5766 5765 5763
5777 5776 5775 5774 5773 5772 5772 5772 5772 5772 5772 5772 5772 5772 5773 5773 5773 5773 5773 5774 5774 5774 5774 5774 5774 5774 5774 5773 5773 5772 5771 5770 5769 5768 5767 5765 5763 5761
5780 5779 5778 5777 5776 5776 5775 5775 5774 5774 5774 5774 5774 5774 5774 5774 5774 5774 5774 5774 5774 5774 5774 5774 5773 5773 5773 5773 5772 5771 5770 5769 5768 5767 5765 5764 5762 5760
5783 5782 5781 5780 5779 5778 5778 5777 5777 5776 5776 5776 5775 5775 5775 5775 5775 5774 5774 5774 5774 5774 5773 5773 5773 5773 5772 5772 5771 5770 5769 5768 5767 5765 5764 5762 5760 5758